Location: Bothwell
(42.3833°S, 147.0000°E)
Time: 18:13:11
(UTC+11:00)

CAS-4B - Visible Passes

Search period start: 06 October 2022 00:00
Search period end: 16 October 2022 00:00
Orbit: 520 x 536 km, 43.0° (Epoch: 05 October)

Date Brightness Start Highest point End Pass type
(mag) Time Alt. Az. Time Alt. Az. Time Alt. Az.
06 Oct ? 19:50:27 10° N 19:52:46 15° NE 19:55:06 10° ENE visible
06 Oct ? 21:28:12 10° NW 21:30:50 36° NW 21:30:50 36° NW visible
07 Oct ? 21:15:02 10° WNW 21:18:59 61° NNE 21:18:59 61° NNE visible
08 Oct ? 21:01:53 10° WNW 21:05:55 68° NNE 21:06:57 46° E visible
08 Oct ? 22:41:51 10° W 22:42:09 12° W 22:42:09 12° W visible
09 Oct ? 20:48:44 10° WNW 20:52:48 76° NNE 20:54:45 29° E visible
09 Oct ? 22:28:44 10° W 22:29:57 19° W 22:29:57 19° W visible
10 Oct ? 20:35:36 10° WNW 20:39:40 82° NNE 20:42:27 20° E visible
10 Oct ? 22:15:37 10° W 22:17:38 28° W 22:17:38 28° W visible
11 Oct ? 20:22:27 10° WNW 20:26:32 88° N 20:30:03 14° E visible
11 Oct ? 22:02:29 10° W 22:05:13 41° W 22:05:13 41° W visible
12 Oct ? 20:09:18 10° W 20:13:24 87° S 20:17:29 10° E visible
12 Oct ? 21:49:21 10° W 21:52:44 60° W 21:52:44 60° W visible
13 Oct ? 19:56:09 10° W 20:00:15 84° S 20:04:20 10° E visible
13 Oct ? 21:36:12 10° W 21:40:11 82° NW 21:40:11 82° NW visible
14 Oct ? 21:23:02 10° W 21:27:07 77° NNW 21:27:37 65° NE visible
15 Oct ? 21:09:51 10° W 21:13:55 70° NNW 21:15:02 45° NE visible
